Location: Unspecified
(51.0950°N, 12.9690°E)
Time: 16:00:54
(UTC+00:00)

Cosmos 1844 Rocket - Pass Details

Date: 28 October 2021
Orbit: 826 x 843 km, 71.0° (Epoch: 02 December)

Event Time Altitude Azimuth Distance (km) Brightness Sun altitude
Rises 17:54:53 0° 324° (NW) 3,376 6.4 -20.2°
Reaches altitude 10° 17:57:31 10° 316° (NW) 2,438 5.8 -20.6°
Maximum altitude 18:02:26 33° 254° (WSW) 1,356 4.3 -21.4°
Drops below altitude 10° 18:07:21 10° 191° (S) 2,425 5.1 -22.2°
Sets 18:09:58 0° 182° (S) 3,356 5.8 -22.6°
